Location: Poprad
(49.0500°N, 20.3000°E)
Time: 06:51:05
(UTC+02:00)

ISS - Pass Details

Date: 29 March 2019
Orbit: 408 x 410 km, 51.6° (Epoch: 20 April)

Event Time Altitude Azimuth Distance (km) Brightness Sun altitude
Rises 18:28:59 0° 261° (W) 2,334 1.6 -4.8°
Reaches altitude 10° 18:31:05 10° 264° (W) 1,473 0.5 -5.1°
Maximum altitude 18:34:22 64° 348° (NNW) 456 -3.4 -5.6°
Drops below altitude 10° 18:37:39 10° 70° (ENE) 1,475 -1.5 -6.2°
Enters shadow 18:38:34 - 72° (ENE) 1,849 -1.0 -6.3°
